Flag for Iran Weather past 2 weeks in Mashhad, Iran

75 °F


Feels Like: 78 °F
Forecast: 56 / 69 °F
Wind: 5 mph from Northeast

Location: Mashhad Airport

Current Time: Oct 10, 2015 at 11:29:46 AM

Latest Report: Oct 10, 2015 at 11:00 AM

Visibility: 10 mi

Pressure: 30.01 "Hg (26.81 "Hg at 981m altitude)

Humidity: 41%

Dew point: 50 °F

Location of MashhadLocation

Historic Weather in Mashhad — Graph


Mashhad temperature yesterday

Maximum temperature yesterday: 79 °F (at 9:30 AM)
Minimum temperature yesterday: 63 °F (at 9:00 PM)
Average temperature yesterday: 70 °F

Past Weeks' High & Low Weather Summary

High97 °F (Oct 8, 2:00 PM)77% (Oct 10, 5:30 AM)30.30 "Hg (Oct 10, 5:30 AM)
Low48 °F (Sep 26, 5:00 AM)6% (Oct 8, 12:00 PM)29.86 "Hg (Oct 8, 12:30 PM)
Average70 °F30%30.12 "Hg
* Reported Sep 25 9:30 AM — Oct 10 10:00 AM, Mashhad, Weather by CustomWeather, © 2015

Note: Actual official high and low records may vary slightly from our data, if they occured in-between our weather recording intervals... More about our weather records


Mashhad weather history for previous 24 hours

Time TempWeatherWind HumidityBarometerVisibility
10:00 AM
Sat, Oct 10
73 °FSunny.5 mph44%30.04 "Hg10 mi
9:30 AM72 °FSunny.5 mph47%30.04 "Hg10 mi
9:00 AM70 °FSunny.7 mph53%30.04 "Hg10 mi
8:30 AM66 °FSunny.No wind60%30.04 "Hg10 mi
8:00 AM64 °FSunny.5 mph64%30.04 "Hg10 mi
7:00 AM61 °FScattered clouds.7 mph72%30.01 "Hg5 mi
6:30 AM59 °FScattered clouds.5 mph72%29.98 "Hg5 mi
6:00 AM57 °FPassing clouds.No wind77%29.98 "Hg4 mi
5:30 AM57 °FPassing clouds.5 mph77%29.98 "Hg5 mi
5:00 AM59 °FPassing clouds.5 mph72%29.98 "HgN/A
4:30 AM59 °FPassing clouds.No wind72%29.98 "HgN/A
4:00 AM61 °FPassing clouds.No wind72%29.98 "HgN/A
3:30 AM59 °FPassing clouds.5 mph72%29.98 "HgN/A
3:00 AM59 °FPassing clouds.5 mph72%29.98 "HgN/A
2:30 AM63 °FPassing clouds.5 mph64%30.01 "HgN/A
2:00 AM61 °FPassing clouds.5 mph72%30.01 "HgN/A
1:30 AM61 °FPassing clouds.5 mph72%30.01 "HgN/A
12:30 AM64 °FPassing clouds.9 mph60%30.07 "HgN/A
12:00 AM63 °FPassing clouds.5 mph59%30.04 "HgN/A
11:30 PM
Fri, Oct 9
63 °FPassing clouds.7 mph64%30.04 "HgN/A
11:00 PM63 °FPassing clouds.5 mph64%30.04 "HgN/A
10:30 PM63 °FPassing clouds.7 mph59%30.04 "HgN/A
10:00 PM63 °FPassing clouds.9 mph59%30.04 "HgN/A
9:30 PM63 °FClear.12 mph59%29.98 "Hg10 mi
9:00 PM63 °FClear.9 mph59%29.98 "Hg10 mi
8:30 PM64 °FClear.9 mph56%29.98 "Hg10 mi
8:00 PM64 °FClear.9 mph56%30.01 "Hg10 mi
7:30 PM64 °FClear.9 mph56%30.01 "Hg10 mi
7:00 PM66 °FClear.12 mph49%30.01 "Hg10 mi
6:30 PM66 °FClear.12 mph49%30.01 "Hg10 mi
6:00 PM68 °FClear.14 mph46%30.01 "Hg10 mi
5:30 PM68 °FSunny.14 mph46%29.98 "Hg10 mi
5:00 PM70 °FSunny.14 mph43%29.98 "Hg10 mi
4:30 PM72 °FSunny.18 mph41%29.98 "Hg10 mi
4:00 PM73 °FSunny.21 mph38%29.98 "Hg10 mi
3:30 PM75 °FScattered clouds.21 mph34%29.98 "HgN/A
3:00 PM75 °FPartly sunny.18 mph34%29.98 "HgN/A
2:30 PM75 °FPartly sunny.25 mph34%29.98 "HgN/A
2:00 PM77 °FSunny.14 mph32%29.98 "Hg10 mi
1:30 PM79 °FSunny.16 mph32%29.98 "Hg10 mi
1:00 PM79 °FSunny.21 mph32%29.98 "Hg10 mi
12:30 PM77 °FSunny.14 mph30%30.01 "Hg10 mi
12:00 PM79 °FSunny.18 mph28%30.01 "Hg10 mi
11:30 AM79 °FSunny.16 mph28%30.04 "Hg10 mi
11:00 AM79 °FSunny.12 mph26%30.04 "Hg10 mi
Weather by CustomWeather, © 2015

See weather overviewHow to use our weather pages